Location: Peterborough
(44.3091°N, 78.3197°W)
Time: 14:37:00
(UTC-04:00)

Courier 1B - Pass Details

Date: 24 March 2023
Orbit: 962 x 1209 km, 28.3° (Epoch: 27 May)

Event Time Altitude Azimuth Distance (km) Brightness Sun altitude
Rises 20:30:24 0° 248° (WSW) 3,839 11.6 -11.4°
Reaches altitude 10° 20:34:05 10° 231° (SW) 2,835 10.4 -12.0°
Maximum altitude 20:38:32 18° 190° (S) 2,225 9.3 -12.8°
Drops below altitude 10° 20:42:52 10° 148° (SSE) 2,735 9.4 -13.6°
Enters shadow 20:43:11 - 146° (SE) 2,807 9.5 -13.6°
